TimeMDT,TemperatureF,Dew PointF,Humidity,Sea Level PressureIn,VisibilityMPH,Wind Direction,Wind SpeedMPH,Gust SpeedMPH,PrecipitationIn,Events,Conditions,WindDirDegrees,DateUTC
12:53 AM,34.0,30.0,85,29.91,10.0,South,6.9,-,N/A,,Clear,190,2012-10-11 06:53:00
1:53 AM,33.1,30.9,92,29.91,10.0,East,3.5,-,N/A,,Clear,80,2012-10-11 07:53:00
2:53 AM,37.9,34.0,86,29.91,10.0,North,12.7,-,N/A,,Clear,10,2012-10-11 08:53:00
3:53 AM,39.9,34.0,79,29.93,10.0,NNE,10.4,-,N/A,,Clear,20,2012-10-11 09:53:00
4:53 AM,41.0,33.1,73,29.97,10.0,NE,12.7,-,N/A,,Clear,40,2012-10-11 10:53:00
5:53 AM,39.9,33.1,77,30.03,10.0,NNE,12.7,-,N/A,,Clear,30,2012-10-11 11:53:00
6:53 AM,37.9,32.0,79,30.11,10.0,North,9.2,-,N/A,,Clear,10,2012-10-11 12:53:00
7:53 AM,37.0,32.0,82,30.16,10.0,North,10.4,-,N/A,,Clear,10,2012-10-11 13:53:00
8:53 AM,37.4,33.8,87,30.19,10.0,NNE,13.8,-,N/A,,Clear,20,2012-10-11 14:53:00
9:13 AM,39.2,33.8,81,30.20,10.0,NNE,12.7,-,N/A,,Mostly Cloudy,20,2012-10-11 15:13:00
9:53 AM,41.0,33.1,73,30.22,10.0,NE,15.0,-,N/A,,Mostly Cloudy,40,2012-10-11 15:53:00
10:33 AM,42.8,33.8,70,30.21,10.0,NNE,16.1,-,N/A,,Mostly Cloudy,20,2012-10-11 16:33:00
10:53 AM,41.0,32.0,70,30.24,10.0,NNE,18.4,24.2,N/A,,Mostly Cloudy,20,2012-10-11 16:53:00
11:00 AM,42.8,32.0,66,30.22,10.0,NNE,15.0,-,N/A,,Scattered Clouds,20,2012-10-11 17:00:00
11:37 AM,41.0,32.0,70,30.22,10.0,NNE,17.3,-,N/A,,Mostly Cloudy,20,2012-10-11 17:37:00
11:53 AM,43.0,32.0,65,30.23,10.0,NE,18.4,27.6,N/A,,Mostly Cloudy,40,2012-10-11 17:53:00
12:08 PM,42.8,30.2,61,30.23,10.0,NE,17.3,-,N/A,,Scattered Clouds,40,2012-10-11 18:08:00
12:53 PM,46.9,30.9,54,30.24,10.0,NE,16.1,21.9,N/A,,Clear,50,2012-10-11 18:53:00
1:53 PM,48.0,30.0,50,30.24,10.0,NNE,15.0,-,N/A,,Clear,20,2012-10-11 19:53:00
2:53 PM,48.9,30.0,48,30.22,10.0,NE,16.1,21.9,N/A,,Clear,50,2012-10-11 20:53:00
3:53 PM,48.2,28.4,46,30.21,10.0,ENE,13.8,21.9,N/A,,Clear,60,2012-10-11 21:53:00
4:53 PM,48.9,28.0,44,30.23,10.0,NE,9.2,-,N/A,,Clear,50,2012-10-11 22:53:00
5:53 PM,46.0,28.0,50,30.24,10.0,East,9.2,-,N/A,,Clear,80,2012-10-11 23:53:00
6:53 PM,37.4,26.6,65,30.24,10.0,East,6.9,-,N/A,,Clear,80,2012-10-12 00:53:00
7:53 PM,36.0,27.0,70,30.32,10.0,ESE,5.8,-,N/A,,Clear,110,2012-10-12 01:53:00
9:53 PM,34.0,27.0,75,30.33,10.0,ESE,9.2,-,N/A,,Clear,120,2012-10-12 03:53:00
10:53 PM,34.0,26.1,73,30.32,10.0,ESE,10.4,-,N/A,,Clear,120,2012-10-12 04:53:00
11:53 PM,33.1,26.1,75,30.33,10.0,SE,8.1,-,N/A,,Clear,140,2012-10-12 05:53:00